,,Stat6,,Stat2,,Stat8,,Stat9,,Stat10,,Wind1,,Wind1,
time,status,PA1M_AVG,status,PR1M_SUM,status,RH1M_AVG,status,SR1M_AVG,status,TA1M_AVG,status,W1dAve1m,status,W1sAve1m,
2005-08-01, 00:00:00,VALID,917.79,VALID,0,VALID,98.8278,VALID,0.0169808,VALID,18.0986,VALID,6,VALID,0,
2005-08-01, 00:01:00,VALID,917.782,VALID,0,VALID,98.5888,VALID,0.0509425,VALID,18.1145,VALID,6,VALID,0,
2005-08-01, 00:02:00,VALID,917.781,VALID,0,VALID,98.1437,VALID,0.0169808,VALID,18.105,VALID,6,VALID,0.11452,
2005-08-01, 00:03:00,VALID,917.768,VALID,0,VALID,97.8843,VALID,0,VALID,18.0725,VALID,6,VALID,0.244978,
2005-08-01, 00:04:00,VALID,917.77,VALID,0,VALID,98.1043,VALID,0.0169808,VALID,18.0792,VALID,6,VALID,0.291481,
2005-08-01, 00:05:00,VALID,917.768,VALID,0,VALID,98.2238,VALID,0.0339617,VALID,18.0557,VALID,6,VALID,0.476563,
2005-08-01, 00:06:00,VALID,917.772,VALID,0,VALID,98.4082,VALID,0.0849042,VALID,18.0527,VALID,108,VALID,0.59811,
2005-08-01, 00:07:00,VALID,917.776,VALID,0,VALID,98.1526,VALID,0.0339617,VALID,18.0269,VALID,161,VALID,0.715554,
2005-08-01, 00:08:00,VALID,917.758,VALID,0,VALID,97.9085,VALID,0.0339617,VALID,17.9503,VALID,161,VALID,0.809375,
2005-08-01, 00:09:00,VALID,917.718,VALID,0,VALID,98.1946,VALID,0.0169808,VALID,17.9049,VALID,160,VALID,0.800604,
2005-08-01, 00:10:00,VALID,917.686,VALID,0,VALID,98.0026,VALID,0,VALID,17.8466,VALID,148,VALID,0.629278,
2005-08-01, 00:11:00,VALID,917.663,VALID,0,VALID,98.028,VALID,0.0339617,VALID,17.7822,VALID,136,VALID,0.675145,
2005-08-01, 00:12:00,VALID,917.661,VALID,0,VALID,98.529,VALID,0.0509425,VALID,17.7297,VALID,132,VALID,0.650112,
2005-08-01, 00:13:00,VALID,917.669,VALID,0,VALID,98.983,VALID,0.0169808,VALID,17.7603,VALID,134,VALID,0.363181,
2005-08-01, 00:14:00,VALID,917.682,VALID,0,VALID,99.0542,VALID,-0.0849042,VALID,17.764,VALID,134,VALID,0.0846946,
2005-08-01, 00:15:00,VALID,917.686,VALID,0,VALID,98.8889,VALID,-0.101885,VALID,17.7612,VALID,134,VALID,0.343924,
2005-08-01, 00:16:00,VALID,917.664,VALID,0,VALID,98.6638,VALID,-0.0849042,VALID,17.7321,VALID,134,VALID,0.759301,
2005-08-01, 00:17:00,VALID,917.65,VALID,0,VALID,99.1419,VALID,-0.0849042,VALID,17.7289,VALID,129,VALID,0.874112,
2005-08-01, 00:18:00,VALID,917.64,VALID,0,VALID,99.1114,VALID,-0.0679233,VALID,17.7414,VALID,130,VALID,0.881479,
2005-08-01, 00:19:00,VALID,917.607,VALID,0,VALID,98.9448,VALID,-0.0679233,VALID,17.7225,VALID,118,VALID,0.946528,
2005-08-01, 00:20:00,VALID,917.613,VALID,0,VALID,98.983,VALID,-0.0849042,VALID,17.7065,VALID,122,VALID,0.745236,
2005-08-01, 00:21:00,VALID,917.609,VALID,0,VALID,99.3568,VALID,-0.0509425,VALID,17.6969,VALID,136,VALID,0.978277,
2005-08-01, 00:22:00,VALID,917.6,VALID,0,VALID,99.8472,VALID,-0.0849042,VALID,17.7095,VALID,137,VALID,1.17148,
2005-08-01, 00:23:00,VALID,917.628,VALID,0,VALID,100,VALID,-0.101885,VALID,17.755,VALID,133,VALID,1.02885,
2005-08-01, 00:24:00,VALID,917.632,VALID,0,VALID,100,VALID,-0.0679233,VALID,17.7321,VALID,135,VALID,0.710379,
2005-08-01, 00:25:00,VALID,917.622,VALID,0,VALID,100,VALID,-0.0509425,VALID,17.6962,VALID,138,VALID,1.15551,
2005-08-01, 00:26:00,VALID,917.582,VALID,0,VALID,100,VALID,-0.0849042,VALID,17.6736,VALID,136,VALID,1.27271,
2005-08-01, 00:27:00,VALID,917.563,VALID,0,VALID,100,VALID,-0.101885,VALID,17.6738,VALID,137,VALID,0.85032,
2005-08-01, 00:28:00,VALID,917.551,VALID,0,VALID,100,VALID,0,VALID,17.6637,VALID,114,VALID,0.861192,
2005-08-01, 00:29:00,VALID,917.569,VALID,0,VALID,100,VALID,0.0169808,VALID,17.6727,VALID,130,VALID,0.548399,
2005-08-01, 00:30:00,VALID,917.559,VALID,0,VALID,100,VALID,0.0339617,VALID,17.6527,VALID,136,VALID,0.667333,
2005-08-01, 00:31:00,VALID,917.554,VALID,0,VALID,100,VALID,0,VALID,17.6632,VALID,145,VALID,0.676042,
2005-08-01, 00:32:00,VALID,917.543,VALID,0,VALID,100,VALID,0.0509425,VALID,17.6561,VALID,140,VALID,0.733232,
2005-08-01, 00:33:00,VALID,917.514,VALID,0,VALID,100,VALID,0.0679233,VALID,17.6531,VALID,139,VALID,0.877486,
2005-08-01, 00:34:00,VALID,917.491,VALID,0,VALID,100,VALID,0.0679233,VALID,17.6497,VALID,139,VALID,0.942187,
2005-08-01, 00:35:00,VALID,917.517,VALID,0,VALID,100,VALID,0.0679233,VALID,17.6727,VALID,145,VALID,0.793713,
2005-08-01, 00:36:00,VALID,917.519,VALID,0,VALID,100,VALID,0.0509425,VALID,17.6693,VALID,148,VALID,0.632994,
2005-08-01, 00:37:00,VALID,917.523,VALID,0,VALID,100,VALID,0,VALID,17.6757,VALID,156,VALID,0.596007,
2005-08-01, 00:38:00,VALID,917.524,VALID,0,VALID,100,VALID,0.0509425,VALID,17.6886,VALID,147,VALID,0.47218,
2005-08-01, 00:39:00,VALID,917.523,VALID,0,VALID,100,VALID,0.0509425,VALID,17.6888,VALID,145,VALID,0.227834,
2005-08-01, 00:40:00,VALID,917.494,VALID,0,VALID,100,VALID,0.0679233,VALID,17.6757,VALID,156,VALID,0.519804,
2005-08-01, 00:41:00,VALID,917.465,VALID,0,VALID,100,VALID,0.0679233,VALID,17.6727,VALID,157,VALID,0.569767,
2005-08-01, 00:42:00,VALID,917.442,VALID,0,VALID,100,VALID,0.0339617,VALID,17.6697,VALID,151,VALID,0.701172,
2005-08-01, 00:43:00,VALID,917.453,VALID,0,VALID,100,VALID,0.0169808,VALID,17.6794,VALID,131,VALID,0.41353,
2005-08-01, 00:44:00,VALID,917.445,VALID,0,VALID,100,VALID,-0.0509425,VALID,17.7093,VALID,141,VALID,0.46317,
2005-08-01, 00:45:00,VALID,917.447,VALID,0,VALID,99.9914,VALID,-0.0169808,VALID,17.6708,VALID,134,VALID,0.244992,
2005-08-01, 00:46:00,VALID,917.445,VALID,0,VALID,99.634,VALID,-0.0169808,VALID,17.5733,VALID,128,VALID,0.218056,
2005-08-01, 00:47:00,VALID,917.455,VALID,0,VALID,99.941,VALID,0,VALID,17.5475,VALID,128,VALID,0.22202,
2005-08-01, 00:48:00,VALID,917.456,VALID,0,VALID,100,VALID,-0.0849042,VALID,17.577,VALID,128,VALID,0.416788,
2005-08-01, 00:49:00,VALID,917.451,VALID,0,VALID,100,VALID,-0.0849042,VALID,17.6062,VALID,128,VALID,0.371094,
2005-08-01, 00:50:00,VALID,917.441,VALID,0,VALID,100,VALID,-0.0509425,VALID,17.5991,VALID,128,VALID,0.0496003,
2005-08-01, 00:51:00,VALID,917.444,VALID,0,VALID,100,VALID,-0.0509425,VALID,17.606,VALID,128,VALID,0.304869,
2005-08-01, 00:52:00,VALID,917.427,VALID,0,VALID,100,VALID,-0.0849042,VALID,17.6519,VALID,128,VALID,0.428524,
2005-08-01, 00:53:00,VALID,917.4,VALID,0,VALID,100,VALID,-0.0679233,VALID,17.6964,VALID,128,VALID,0.317649,
2005-08-01, 00:54:00,VALID,917.348,VALID,0,VALID,100,VALID,-0.0339617,VALID,17.7547,VALID,128,VALID,0.263808,
2005-08-01, 00:55:00,VALID,917.32,VALID,0,VALID,99.4692,VALID,-0.0509425,VALID,17.7033,VALID,101,VALID,0.577778,
2005-08-01, 00:56:00,VALID,917.302,VALID,0,VALID,97.7165,VALID,-0.0339617,VALID,17.441,VALID,36,VALID,0.782703,
2005-08-01, 00:57:00,VALID,917.301,VALID,0,VALID,98.056,VALID,0,VALID,17.3413,VALID,36,VALID,0.67488,
2005-08-01, 00:58:00,VALID,917.279,VALID,0,VALID,98.9359,VALID,-0.0679233,VALID,17.3192,VALID,47,VALID,0.680208,
2005-08-01, 00:59:00,VALID,917.249,VALID,0,VALID,99.4675,VALID,-0.0339617,VALID,17.3222,VALID,56,VALID,0.572049,
2005-08-01, 01:00:00,VALID,917.22,VALID,0,VALID,99.4903,VALID,-0.0679233,VALID,17.283,VALID,56,VALID,0.569444,
2005-08-01, 01:01:00,VALID,917.229,VALID,0,VALID,99.8833,VALID,-0.0849042,VALID,17.2832,VALID,58,VALID,0.66806,
2005-08-01, 01:02:00,VALID,917.239,VALID,0,VALID,99.999,VALID,-0.0509425,VALID,17.2802,VALID,64,VALID,0.660334,
2005-08-01, 01:03:00,VALID,917.245,VALID,0,VALID,99.5794,VALID,-0.0509425,VALID,17.2122,VALID,64,VALID,0.861133,
2005-08-01, 01:04:00,VALID,917.245,VALID,0,VALID,99.5018,VALID,-0.0679233,VALID,17.1608,VALID,56,VALID,0.861471,
2005-08-01, 01:05:00,VALID,917.25,VALID,0,VALID,99.6048,VALID,-0.0509425,VALID,17.1152,VALID,49,VALID,0.870094,
2005-08-01, 01:06:00,VALID,917.214,VALID,0,VALID,99.8141,VALID,-0.0849042,VALID,17.0995,VALID,50,VALID,0.946354,
2005-08-01, 01:07:00,VALID,917.153,VALID,0,VALID,100,VALID,-0.0849042,VALID,17.2546,VALID,64,VALID,1.12024,
2005-08-01, 01:08:00,VALID,917.098,VALID,0,VALID,100,VALID,-0.0849042,VALID,17.4031,VALID,69,VALID,1.13033,
2005-08-01, 01:09:00,VALID,917.089,VALID,0,VALID,100,VALID,-0.0679233,VALID,17.4999,VALID,78,VALID,1.01372,
2005-08-01, 01:10:00,VALID,917.085,VALID,0,VALID,100,VALID,-0.0509425,VALID,17.5841,VALID,78,VALID,0.724564,
2005-08-01, 01:11:00,VALID,917.082,VALID,0,VALID,100,VALID,-0.0849042,VALID,17.6198,VALID,78,VALID,0.413872,
2005-08-01, 01:12:00,VALID,917.099,VALID,0,VALID,100,VALID,-0.0509425,VALID,17.5804,VALID,78,VALID,0.227108,
2005-08-01, 01:13:00,VALID,917.112,VALID,0,VALID,100,VALID,-0.0849042,VALID,17.532,VALID,86,VALID,0.523438,
2005-08-01, 01:14:00,VALID,917.101,VALID,0,VALID,100,VALID,-0.0339617,VALID,17.5389,VALID,101,VALID,0.718192,
2005-08-01, 01:15:00,VALID,917.093,VALID,0,VALID,100,VALID,-0.0679233,VALID,17.532,VALID,116,VALID,0.898638,
2005-08-01, 01:16:00,VALID,917.059,VALID,0,VALID,100,VALID,-0.0339617,VALID,17.5318,VALID,119,VALID,0.847747,
2005-08-01, 01:17:00,VALID,917.038,VALID,0,VALID,100,VALID,-0.0849042,VALID,17.5223,VALID,120,VALID,0.716206,
2005-08-01, 01:18:00,VALID,917.015,VALID,0,VALID,100,VALID,-0.0509425,VALID,17.5189,VALID,120,VALID,0.864062,
2005-08-01, 01:19:00,VALID,917.003,VALID,0,VALID,100,VALID,-0.0339617,VALID,17.5156,VALID,121,VALID,0.958133,
2005-08-01, 01:20:00,VALID,916.991,VALID,0,VALID,100,VALID,-0.0679233,VALID,17.529,VALID,130,VALID,1.04306,
2005-08-01, 01:21:00,VALID,916.972,VALID,0,VALID,100,VALID,-0.0509425,VALID,17.5156,VALID,130,VALID,0.793269,
2005-08-01, 01:22:00,VALID,916.975,VALID,0,VALID,100,VALID,-0.0679233,VALID,17.5348,VALID,127,VALID,0.676897,
2005-08-01, 01:23:00,VALID,917.001,VALID,0,VALID,100,VALID,-0.0509425,VALID,17.5843,VALID,127,VALID,0.713068,
2005-08-01, 01:24:00,VALID,917.017,VALID,0,VALID,100,VALID,-0.0679233,VALID,17.5606,VALID,149,VALID,0.754092,
2005-08-01, 01:25:00,VALID,917.02,VALID,0,VALID,100,VALID,-0.0339617,VALID,17.5352,VALID,157,VALID,0.743886,
2005-08-01, 01:26:00,VALID,917.003,VALID,0,VALID,100,VALID,-0.0339617,VALID,17.574,VALID,156,VALID,0.786285,
2005-08-01, 01:27:00,VALID,916.959,VALID,0,VALID,100,VALID,-0.0509425,VALID,17.6127,VALID,156,VALID,0.669212,
2005-08-01, 01:28:00,VALID,916.94,VALID,0,VALID,100,VALID,-0.0339617,VALID,17.6415,VALID,151,VALID,0.501143,
2005-08-01, 01:29:00,VALID,916.936,VALID,0,VALID,100,VALID,-0.0849042,VALID,17.6708,VALID,148,VALID,0.594105,
2005-08-01, 01:30:00,VALID,916.921,VALID,0,VALID,100,VALID,-0.0679233,VALID,17.7063,VALID,139,VALID,0.764353,
2005-08-01, 01:31:00,VALID,916.896,VALID,0,VALID,100,VALID,-0.0849042,VALID,17.7257,VALID,134,VALID,1.11347,
2005-08-01, 01:32:00,VALID,916.883,VALID,0,VALID,100,VALID,-0.0339617,VALID,17.7771,VALID,134,VALID,1.08339,
2005-08-01, 01:33:00,VALID,916.893,VALID,0,VALID,100,VALID,-0.0849042,VALID,17.8225,VALID,137,VALID,0.859557,
2005-08-01, 01:34:00,VALID,916.882,VALID,0,VALID,100,VALID,0,VALID,17.8479,VALID,144,VALID,0.743118,
2005-08-01, 01:35:00,VALID,916.871,VALID,0,VALID,100,VALID,-0.0679233,VALID,17.8871,VALID,142,VALID,0.725675,
2005-08-01, 01:36:00,VALID,916.84,VALID,0,VALID,100,VALID,-0.0339617,VALID,17.9095,VALID,135,VALID,0.653582,
2005-08-01, 01:37:00,VALID,916.825,VALID,0,VALID,100,VALID,-0.0509425,VALID,17.9291,VALID,139,VALID,0.701349,
2005-08-01, 01:38:00,VALID,916.799,VALID,0,VALID,100,VALID,-0.0339617,VALID,17.9482,VALID,137,VALID,0.761433,
2005-08-01, 01:39:00,VALID,916.783,VALID,0,VALID,99.9769,VALID,-0.0509425,VALID,17.9575,VALID,133,VALID,0.843229,
2005-08-01, 01:40:00,VALID,916.742,VALID,0,VALID,99.7434,VALID,-0.101885,VALID,17.9676,VALID,137,VALID,0.79516,
2005-08-01, 01:41:00,VALID,916.743,VALID,0,VALID,99.5692,VALID,-0.0339617,VALID,17.9676,VALID,136,VALID,0.695871,
2005-08-01, 01:42:00,VALID,916.729,VALID,0,VALID,99.428,VALID,-0.0339617,VALID,17.9678,VALID,136,VALID,0.243118,
2005-08-01, 01:43:00,VALID,916.725,VALID,0,VALID,99.3009,VALID,-0.0339617,VALID,17.9482,VALID,132,VALID,0.46131,
2005-08-01, 01:44:00,VALID,916.711,VALID,0,VALID,99.2144,VALID,-0.0679233,VALID,17.9323,VALID,138,VALID,0.494318,
2005-08-01, 01:45:00,VALID,916.705,VALID,0,VALID,99.2856,VALID,-0.0509425,VALID,17.9189,VALID,135,VALID,0.870617,
2005-08-01, 01:46:00,VALID,916.716,VALID,0,VALID,99.3683,VALID,-0.0339617,VALID,17.9256,VALID,139,VALID,0.862909,
2005-08-01, 01:47:00,VALID,916.708,VALID,0,VALID,99.4191,VALID,-0.0509425,VALID,17.9286,VALID,141,VALID,0.770349,
2005-08-01, 01:48:00,VALID,916.703,VALID,0,VALID,99.4051,VALID,-0.0169808,VALID,17.9222,VALID,141,VALID,0.7742,
2005-08-01, 01:49:00,VALID,916.709,VALID,0,VALID,99.3962,VALID,-0.0339617,VALID,17.9127,VALID,137,VALID,0.940407,
2005-08-01, 01:50:00,VALID,916.685,VALID,0,VALID,99.4865,VALID,0,VALID,17.8929,VALID,132,VALID,0.85445,
2005-08-01, 01:51:00,VALID,916.66,VALID,0,VALID,99.601,VALID,-0.0169808,VALID,17.8931,VALID,126,VALID,0.619444,
2005-08-01, 01:52:00,VALID,916.651,VALID,0,VALID,99.6671,VALID,-0.0169808,VALID,17.8834,VALID,135,VALID,0.676258,
2005-08-01, 01:53:00,VALID,916.641,VALID,0,VALID,99.6226,VALID,-0.0679233,VALID,17.8737,VALID,132,VALID,0.698583,
2005-08-01, 01:54:00,VALID,916.634,VALID,0,VALID,99.6798,VALID,-0.0169808,VALID,17.871,VALID,132,VALID,0.81622,
2005-08-01, 01:55:00,VALID,916.649,VALID,0,VALID,99.7561,VALID,-0.0339617,VALID,17.8514,VALID,138,VALID,0.896723,
2005-08-01, 01:56:00,VALID,916.629,VALID,0,VALID,99.8299,VALID,-0.0339617,VALID,17.8346,VALID,140,VALID,0.811257,
2005-08-01, 01:57:00,VALID,916.608,VALID,0,VALID,99.9425,VALID,-0.0509425,VALID,17.8316,VALID,140,VALID,1.0218,
2005-08-01, 01:58:00,VALID,916.582,VALID,0,VALID,99.9352,VALID,-0.0339617,VALID,17.8283,VALID,129,VALID,0.784766,
2005-08-01, 01:59:00,VALID,916.582,VALID,0,VALID,99.8349,VALID,-0.0679233,VALID,17.8193,VALID,129,VALID,0.596094,
2005-08-01, 02:00:00,VALID,916.592,VALID,0,VALID,99.9527,VALID,-0.0679233,VALID,17.8064,VALID,128,VALID,0.49814,
2005-08-01, 02:01:00,VALID,916.597,VALID,0,VALID,99.8909,VALID,-0.0339617,VALID,17.8131,VALID,128,VALID,0.308333,
2005-08-01, 02:02:00,VALID,916.602,VALID,0,VALID,99.8299,VALID,-0.0169808,VALID,17.7963,VALID,127,VALID,0.651042,
2005-08-01, 02:03:00,VALID,916.594,VALID,0,VALID,99.7523,VALID,-0.0679233,VALID,17.796,VALID,121,VALID,0.653993,
2005-08-01, 02:04:00,VALID,916.551,VALID,0,VALID,99.2894,VALID,-0.0169808,VALID,17.7737,VALID,96,VALID,0.807546,
2005-08-01, 02:05:00,VALID,916.532,VALID,0,VALID,99.3606,VALID,-0.0339617,VALID,17.7285,VALID,81,VALID,1.12852,
2005-08-01, 02:06:00,VALID,916.526,VALID,0,VALID,99.779,VALID,-0.0339617,VALID,17.7575,VALID,94,VALID,1.14572,
2005-08-01, 02:07:00,VALID,916.531,VALID,0,VALID,99.9901,VALID,-0.0169808,VALID,17.8094,VALID,106,VALID,1.08903,
2005-08-01, 02:08:00,VALID,916.53,VALID,0,VALID,99.8222,VALID,0,VALID,17.8346,VALID,106,VALID,0.777344,
2005-08-01, 02:09:00,VALID,916.52,VALID,0,VALID,99.6213,VALID,0,VALID,17.8707,VALID,106,VALID,0.742759,
2005-08-01, 02:10:00,VALID,916.496,VALID,0,VALID,99.6264,VALID,0,VALID,17.8765,VALID,106,VALID,0.882813,
2005-08-01, 02:11:00,VALID,916.486,VALID,0,VALID,99.545,VALID,-0.0509425,VALID,17.8871,VALID,106,VALID,0.714658,
2005-08-01, 02:12:00,VALID,916.478,VALID,0,VALID,99.4662,VALID,-0.0679233,VALID,17.8767,VALID,106,VALID,0.50279,
2005-08-01, 02:13:00,VALID,916.49,VALID,0,VALID,99.5094,VALID,-0.0509425,VALID,17.8793,VALID,106,VALID,0.612043,
2005-08-01, 02:14:00,VALID,916.484,VALID,0,VALID,99.7192,VALID,0.0169808,VALID,17.8849,VALID,108,VALID,0.634084,
2005-08-01, 02:15:00,VALID,916.467,VALID,0,VALID,99.5857,VALID,0.0339617,VALID,17.8913,VALID,110,VALID,0.642671,
2005-08-01, 02:16:00,VALID,916.435,VALID,0,VALID,99.7574,VALID,0.0169808,VALID,17.9213,VALID,112,VALID,0.670922,
2005-08-01, 02:17:00,VALID,916.43,VALID,0,VALID,99.6188,VALID,0.0169808,VALID,17.9404,VALID,112,VALID,0.605374,
2005-08-01, 02:18:00,VALID,916.413,VALID,0,VALID,99.7892,VALID,0.0339617,VALID,17.9791,VALID,112,VALID,0.687145,
2005-08-01, 02:19:00,VALID,916.429,VALID,0,VALID,99.8642,VALID,0,VALID,18.0534,VALID,112,VALID,0.603125,
2005-08-01, 02:20:00,VALID,916.416,VALID,0,VALID,99.6429,VALID,0.0509425,VALID,18.1246,VALID,112,VALID,0.580729,
2005-08-01, 02:21:00,VALID,916.403,VALID,0,VALID,99.1597,VALID,0.0169808,VALID,18.1696,VALID,112,VALID,0.484557,
2005-08-01, 02:22:00,VALID,916.36,VALID,0,VALID,98.8927,VALID,0.0339617,VALID,18.1954,VALID,112,VALID,0.869368,
2005-08-01, 02:23:00,VALID,916.346,VALID,0,VALID,98.9105,VALID,0.0339617,VALID,18.234,VALID,112,VALID,1.01486,
2005-08-01, 02:24:00,VALID,916.347,VALID,0,VALID,98.5913,VALID,0,VALID,18.2665,VALID,113,VALID,0.99343,
2005-08-01, 02:25:00,VALID,916.359,VALID,0,VALID,97.9441,VALID,0,VALID,18.2662,VALID,114,VALID,0.682776,
2005-08-01, 02:26:00,VALID,916.388,VALID,0,VALID,97.6427,VALID,0,VALID,18.2434,VALID,115,VALID,0.619978,
2005-08-01, 02:27:00,VALID,916.406,VALID,0,VALID,97.7419,VALID,0,VALID,18.2051,VALID,136,VALID,0.973958,
2005-08-01, 02:28:00,VALID,916.406,VALID,0,VALID,97.9771,VALID,-0.0169808,VALID,18.1798,VALID,139,VALID,1.05801,
2005-08-01, 02:29:00,VALID,916.403,VALID,0,VALID,98.2048,VALID,-0.101885,VALID,18.1611,VALID,136,VALID,1.16087,
2005-08-01, 02:30:00,VALID,916.383,VALID,0,VALID,98.3128,VALID,-0.101885,VALID,18.1544,VALID,135,VALID,1.12986,
2005-08-01, 02:31:00,VALID,916.345,VALID,0,VALID,98.4069,VALID,-0.101885,VALID,18.1516,VALID,133,VALID,1.26048,
2005-08-01, 02:32:00,VALID,916.334,VALID,0,VALID,98.4553,VALID,-0.101885,VALID,18.1352,VALID,133,VALID,1.06548,
2005-08-01, 02:33:00,VALID,916.346,VALID,0,VALID,98.4527,VALID,-0.0849042,VALID,18.1258,VALID,130,VALID,0.773438,
2005-08-01, 02:34:00,VALID,916.363,VALID,0,VALID,98.4362,VALID,-0.0339617,VALID,18.1131,VALID,130,VALID,0.646341,
2005-08-01, 02:35:00,VALID,916.374,VALID,0,VALID,98.5087,VALID,-0.101885,VALID,18.1032,VALID,135,VALID,0.970052,
2005-08-01, 02:36:00,VALID,916.38,VALID,0,VALID,98.6078,VALID,-0.0679233,VALID,18.0898,VALID,141,VALID,1.06055,
2005-08-01, 02:37:00,VALID,916.368,VALID,0,VALID,98.6702,VALID,-0.101885,VALID,18.0868,VALID,135,VALID,1.07649,
2005-08-01, 02:38:00,VALID,916.344,VALID,0,VALID,98.7719,VALID,-0.0849042,VALID,18.0707,VALID,128,VALID,0.944463,
2005-08-01, 02:39:00,VALID,916.341,VALID,0,VALID,98.7185,VALID,-0.0849042,VALID,18.0476,VALID,121,VALID,0.69992,
2005-08-01, 02:40:00,VALID,916.342,VALID,0,VALID,98.791,VALID,-0.0679233,VALID,18.0446,VALID,113,VALID,0.598242,
2005-08-01, 02:41:00,VALID,916.348,VALID,0,VALID,98.8444,VALID,-0.0339617,VALID,18.0283,VALID,105,VALID,0.867543,
2005-08-01, 02:42:00,VALID,916.345,VALID,0,VALID,98.9245,VALID,-0.0509425,VALID,18.0354,VALID,120,VALID,0.716146,
2005-08-01, 02:43:00,VALID,916.355,VALID,0,VALID,99.0046,VALID,-0.0339617,VALID,18.0481,VALID,118,VALID,0.886896,
2005-08-01, 02:44:00,VALID,916.338,VALID,0,VALID,98.9855,VALID,0.0339617,VALID,18.04,VALID,118,VALID,0.963914,
2005-08-01, 02:45:00,VALID,916.308,VALID,0,VALID,98.88,VALID,0.0339617,VALID,18.0373,VALID,116,VALID,0.856908,
2005-08-01, 02:46:00,VALID,916.314,VALID,0,VALID,98.796,VALID,0.0509425,VALID,18.0308,VALID,113,VALID,0.441315,
2005-08-01, 02:47:00,VALID,916.324,VALID,0,VALID,98.8367,VALID,0.0339617,VALID,18.0179,VALID,113,VALID,0.744056,
2005-08-01, 02:48:00,VALID,916.329,VALID,0,VALID,98.8304,VALID,0.0509425,VALID,18.0107,VALID,113,VALID,0.709375,
2005-08-01, 02:49:00,VALID,916.31,VALID,0,VALID,98.7515,VALID,0.0169808,VALID,17.9879,VALID,113,VALID,0.728601,
2005-08-01, 02:50:00,VALID,916.258,VALID,0,VALID,98.7617,VALID,0.0339617,VALID,17.9819,VALID,113,VALID,0.66673,
2005-08-01, 02:51:00,VALID,916.232,VALID,0,VALID,98.8494,VALID,0,VALID,17.9529,VALID,108,VALID,1.05926,
2005-08-01, 02:52:00,VALID,916.223,VALID,0,VALID,99.0529,VALID,0.0169808,VALID,17.9464,VALID,95,VALID,1.01072,
2005-08-01, 02:53:00,VALID,916.219,VALID,0,VALID,99.0097,VALID,0.0169808,VALID,17.9335,VALID,93,VALID,0.924964,
2005-08-01, 02:54:00,VALID,916.221,VALID,0,VALID,99.1572,VALID,0.0339617,VALID,17.9337,VALID,104,VALID,0.959335,
2005-08-01, 02:55:00,VALID,916.2,VALID,0,VALID,99.1877,VALID,0.0339617,VALID,17.9268,VALID,102,VALID,1.04334,
2005-08-01, 02:56:00,VALID,916.186,VALID,0,VALID,99.3505,VALID,0.0169808,VALID,17.9305,VALID,103,VALID,1.12318,
2005-08-01, 02:57:00,VALID,916.176,VALID,0,VALID,99.2856,VALID,0,VALID,17.9335,VALID,103,VALID,1.00053,
2005-08-01, 02:58:00,VALID,916.165,VALID,0,VALID,99.3136,VALID,0.0169808,VALID,17.9335,VALID,103,VALID,1.0221,
2005-08-01, 02:59:00,VALID,916.155,VALID,0,VALID,99.1928,VALID,0,VALID,17.9243,VALID,104,VALID,0.956287,
2005-08-01, 03:00:00,VALID,916.124,VALID,0,VALID,99.292,VALID,0,VALID,17.9174,VALID,106,VALID,1.12607,
2005-08-01, 03:01:00,VALID,916.09,VALID,0,VALID,99.2487,VALID,0.0169808,VALID,17.9236,VALID,94,VALID,0.918968,
2005-08-01, 03:02:00,VALID,916.058,VALID,0,VALID,99.0262,VALID,0.0169808,VALID,17.9238,VALID,78,VALID,0.933764,
2005-08-01, 03:03:00,VALID,916.017,VALID,0,VALID,98.721,VALID,0.0339617,VALID,17.9042,VALID,73,VALID,0.909896,
2005-08-01, 03:04:00,VALID,915.981,VALID,0,VALID,98.5913,VALID,0.0339617,VALID,17.8851,VALID,71,VALID,0.999822,
2005-08-01, 03:05:00,VALID,915.961,VALID,0,VALID,98.8774,VALID,0.0509425,VALID,17.8952,VALID,66,VALID,0.998438,
2005-08-01, 03:06:00,VALID,915.969,VALID,0,VALID,98.8304,VALID,0.0169808,VALID,17.9105,VALID,65,VALID,0.912348,
2005-08-01, 03:07:00,VALID,915.972,VALID,0,VALID,98.6371,VALID,0.0339617,VALID,17.9496,VALID,65,VALID,0.759337,
2005-08-01, 03:08:00,VALID,915.98,VALID,0,VALID,98.5481,VALID,-0.0169808,VALID,17.9785,VALID,65,VALID,0.778706,
2005-08-01, 03:09:00,VALID,915.974,VALID,0,VALID,98.3167,VALID,0.0339617,VALID,18.0529,VALID,68,VALID,0.834695,
2005-08-01, 03:10:00,VALID,915.95,VALID,0,VALID,97.8958,VALID,0.0339617,VALID,18.1336,VALID,72,VALID,0.855655,
2005-08-01, 03:11:00,VALID,915.93,VALID,0,VALID,97.3006,VALID,0.0679233,VALID,18.218,VALID,84,VALID,1.22005,
2005-08-01, 03:12:00,VALID,915.903,VALID,0,VALID,96.6496,VALID,0,VALID,18.3045,VALID,90,VALID,1.20275,
2005-08-01, 03:13:00,VALID,915.903,VALID,0,VALID,96.0227,VALID,0.0339617,VALID,18.3696,VALID,97,VALID,1.20722,
2005-08-01, 03:14:00,VALID,915.896,VALID,0,VALID,95.8001,VALID,-0.0169808,VALID,18.3772,VALID,103,VALID,1.35423,
2005-08-01, 03:15:00,VALID,915.865,VALID,0,VALID,95.8179,VALID,-0.0509425,VALID,18.3774,VALID,102,VALID,1.27401,
2005-08-01, 03:16:00,VALID,915.846,VALID,0,VALID,95.6488,VALID,-0.0339617,VALID,18.4065,VALID,88,VALID,1.18806,
2005-08-01, 03:17:00,VALID,915.806,VALID,0,VALID,95.4657,VALID,-0.0339617,VALID,18.4154,VALID,80,VALID,1.0459,
2005-08-01, 03:18:00,VALID,915.785,VALID,0,VALID,95.2267,VALID,-0.0169808,VALID,18.438,VALID,81,VALID,1.02363,
2005-08-01, 03:19:00,VALID,915.772,VALID,0,VALID,95.0944,VALID,-0.0169808,VALID,18.4706,VALID,96,VALID,0.960428,
2005-08-01, 03:20:00,VALID,915.761,VALID,0,VALID,94.8617,VALID,-0.0509425,VALID,18.4577,VALID,117,VALID,0.870722,
2005-08-01, 03:21:00,VALID,915.74,VALID,0,VALID,94.8909,VALID,-0.0169808,VALID,18.4023,VALID,119,VALID,0.897892,
2005-08-01, 03:22:00,VALID,915.756,VALID,0,VALID,95.2737,VALID,0,VALID,18.3543,VALID,116,VALID,1.01563,
2005-08-01, 03:23:00,VALID,915.777,VALID,0,VALID,95.6984,VALID,-0.0339617,VALID,18.296,VALID,111,VALID,1.04368,
2005-08-01, 03:24:00,VALID,915.775,VALID,0,VALID,95.7773,VALID,0,VALID,18.2868,VALID,111,VALID,0.758929,
2005-08-01, 03:25:00,VALID,915.78,VALID,0,VALID,95.9019,VALID,-0.0339617,VALID,18.254,VALID,124,VALID,1.01722,
2005-08-01, 03:26:00,VALID,915.785,VALID,0,VALID,96.0354,VALID,-0.0339617,VALID,18.2448,VALID,123,VALID,0.955611,
2005-08-01, 03:27:00,VALID,915.811,VALID,0,VALID,96.0252,VALID,-0.0509425,VALID,18.2157,VALID,107,VALID,1.15443,
2005-08-01, 03:28:00,VALID,915.827,VALID,0,VALID,96.1753,VALID,-0.0339617,VALID,18.1957,VALID,107,VALID,1.14881,
2005-08-01, 03:29:00,VALID,915.824,VALID,0,VALID,96.2567,VALID,-0.0169808,VALID,18.1959,VALID,109,VALID,1.02575,
2005-08-01, 03:30:00,VALID,915.819,VALID,0,VALID,96.1664,VALID,-0.0169808,VALID,18.1733,VALID,112,VALID,0.704799,
2005-08-01, 03:31:00,VALID,915.811,VALID,0,VALID,96.4538,VALID,-0.0169808,VALID,18.1479,VALID,118,VALID,0.928159,
2005-08-01, 03:32:00,VALID,915.784,VALID,0,VALID,96.731,VALID,-0.0509425,VALID,18.1124,VALID,111,VALID,1.02214,